{"data":{"norad_id":66616,"epoch":"2026-05-24T20:51:09.644832Z","epoch_age_seconds":94000,"freshness":"FRESH","line1":"1 66616U 25270AE  26144.86886163  .00013230  00000+0  48946-3 0  9996","line2":"2 66616  43.0028 346.2026 0001297 281.4259  78.6447 15.27578808 29465","mean_motion":15.27578808,"eccentricity":0.0001297,"inclination_deg":43.0028,"raan_deg":346.2026,"arg_perigee_deg":281.4259,"mean_anomaly_deg":78.6447,"bstar":0.00048946,"rev_number":2946,"period_min":94.266822271863,"perigee_km":482.1627690192,"apogee_km":483.94256161839,"semimajor_km":6861.1896653188,"source":"CELESTRAK","updated_at":"2026-05-25T13:38:21.293550Z"}}